Погода в Леричи

Италия     44°04′33″N   9°54′35″E
темп.,
°C
ветер,
м/с
пор.,
м/с
влажн.,
%
обл.,
%
осадки,
мм/ч
давл.,
гПа
погр.,
м
21 апреля, ср
ср2123:00+12сз117411 0.0 1017299
02:00+12св117458 0.1 1018389
05:00+12вюв2373100 0.0 1018401
08:00+11в2372100 0.0 1018250
11:00+13ююв3465100 0.0 1019588
14:00+13ю346797 0.0 1019609
17:00+13ююв3467100 0.0 1018618
20:00+13ююв2369100 0.0 1018546
22 апреля, чт
чт2223:00+13вюв2371100 0.0 1019503
02:00+12в227496 0.1 1019214
05:00+12св1172100 0.1 1018206
08:00+12ссв21705 0.1 1019160
11:00+13з22633 0.0 1019441
14:00+14зсз32649 0.0 1018492
17:00+14зсз336312 0.1 1017390
20:00+14сз33704 0.1 1017158
23 апреля, пт
пт2323:00+13ссз22732 0.0 101991
02:00+13св11700 0.0 101969
05:00+13св22670 0.0 101980
08:00+13св11620 0.0 1020104
11:00+15зюз21581 0.0 1020429
14:00+15зсз226343 0.0 1020335
17:00+16сз336337 0.0 1019284
20:00+15ссз33695 0.0 102056
24 апреля, сб
сб2423:00+14ссв34700 0.0 102167
02:00+14св33670 0.0 102163
05:00+13св33650 0.0 102175
08:00+13св22590 0.0 102196
11:00+16юз21520 0.0 1021345
14:00+16зюз22560 0.0 1021380
17:00+16сз22570 0.0 1019308
20:00+15ссз33620 0.0 101981
25 апреля, вс
вс2523:00+15с33640 0.0 102036
02:00+15св116727 0.0 102025
05:00+14в226741 0.0 101928
08:00+14юв116497 0.0 102092
11:00+15юз3261100 0.0 1021278
14:00+16зюз3358100 0.0 1020374
17:00+16з2156100 0.0 1019289
20:00+15сз1165100 0.0 101926